Location: *
(46.3202°N, 14.9531°E)
Time: 09:18:31
(UTC+00:00)

Daily predictions for brighter satellites

Satellite Brightness Start Highest point End
(mag) Time Altitude Azimuth Time Altitude Azimuth Time Altitude Azimuth
Meteor 1-15 Rocket 4.3 17:46:22 10° S 17:52:07 89° E 17:57:46 10° NNE
ARGOS 3.8 17:48:42 10° SE 17:53:37 37° ENE 17:58:33 10° N
STARLINK-1124 3.9 17:50:01 10° NW 17:54:07 57° NNE 17:58:12 10° ESE
SL-8 R/B 3.9 17:49:31 10° W 17:54:18 75° N 17:59:05 10° ENE
SeaSat 1 3.4 17:50:23 10° NNE 17:55:13 54° NW 18:00:00 10° SW
STARLINK-1143 4.0 17:52:30 10° SSW 17:56:19 41° SE 18:00:09 10° ENE
STARLINK-1066 2.9 17:53:35 10° WNW 17:56:45 71° NNE 17:59:53 10° ESE
STARLINK-1209 2.6 17:54:00 10° SW 17:56:54 84° SSE 17:59:48 10° ENE
STARLINK-1081 2.9 17:54:03 10° WNW 17:57:11 72° NNE 18:00:17 10° ESE
STARLINK-1070 2.9 17:54:30 10° WNW 17:57:37 72° NNE 18:00:44 10° ESE
STARLINK-1228 2.6 17:54:52 10° WSW 17:57:44 85° SE 18:00:37 10° ENE
STARLINK-1110 3.8 17:54:02 10° NW 17:58:01 59° NNE 18:02:00 10° ESE
STARLINK-1069 2.9 17:54:54 10° WNW 17:58:03 73° NNE 18:01:12 10° ESE
CZ-4 R/B 3.1 17:54:51 10° SSW 17:58:26 36° W 18:02:02 10° NNW
STARLINK-1085 2.9 17:55:21 10° WNW 17:58:30 73° NNE 18:01:40 10° ESE
STARLINK-1086 2.9 17:55:52 10° WNW 17:58:59 74° NNE 18:02:06 10° ESE
STARLINK-1095 2.9 17:56:18 10° WNW 17:59:26 74° NNE 18:02:32 10° ESE
STARLINK-1077 2.9 17:56:45 10° WNW 17:59:52 75° NNE 18:02:59 10° ESE
STARLINK-1075 2.9 17:57:12 10° WNW 18:00:20 76° NNE 18:03:27 10° ESE
STARLINK-1093 2.9 17:57:37 10° WNW 18:00:46 76° NNE 18:03:56 10° ESE
STARLINK-1074 2.9 17:58:03 10° WNW 18:01:13 77° NNE 18:04:22 10° ESE
STARLINK-1087 2.9 17:58:33 10° WNW 18:01:41 77° NNE 18:04:47 10° ESE
STARLINK-1088 2.8 17:59:00 10° WNW 18:02:08 78° NNE 18:05:15 10° ESE
STARLINK-1115 2.9 17:59:25 10° WNW 18:02:34 79° NNE 18:05:44 10° ESE
STARLINK-1076 2.9 17:59:51 10° WNW 18:03:01 79° NNE 18:06:10 10° ESE
STARLINK-1092 2.9 18:00:19 10° WNW 18:03:29 80° NNE 18:06:37 10° ESE
STARLINK-1080 2.8 18:00:48 10° WNW 18:03:56 81° NNE 18:07:00 10° ESE
STARLINK-1090 2.8 18:01:14 10° WNW 18:04:23 81° NNE 18:07:26 10° ESE
Cosmos 1271 Rocket 4.2 18:01:11 10° NNW 18:04:44 40° W 18:08:14 10° SSW
STARLINK-1089 2.8 18:01:42 10° WNW 18:04:50 82° NNE 18:07:52 11° ESE
STARLINK-1107 2.8 18:02:09 10° WNW 18:05:17 82° NE 18:08:18 11° ESE
Cosmos 1470 4.0 18:02:47 10° SE 18:05:41 20° E 18:08:36 10° NE
NOSS 2-1 (C) 4.0 18:03:01 10° WSW 18:06:19 48° NW 18:09:55 10° NNE
STARLINK-1241 3.8 18:02:58 10° SW 18:06:51 49° SE 18:10:44 10° ENE
STARLINK-1122 3.7 18:03:10 10° WNW 18:07:11 65° NNE 18:10:59 11° ESE
ATLAS CENTAUR R/B 4.3 18:06:14 10° WNW 18:08:17 13° NNW 18:10:17 10° N
STARLINK-1233 2.8 18:07:12 10° SW 18:10:20 82° SSE 18:13:30 10° ENE
IRS-1A Rocket 4.3 18:04:55 10° SSE 18:10:29 68° ENE 18:16:14 10° N
NOSS 2-1 (D) 4.3 18:07:16 10° WSW 18:10:32 43° NW 18:14:07 10° NNE
COSMOS 2428 4.4 18:05:28 10° WSW 18:10:47 38° NW 18:16:07 10° NNE
STARLINK-1212 2.8 18:07:40 10° SW 18:10:47 82° SSE 18:13:56 10° ENE
STARLINK-1105 2.8 18:08:07 10° SW 18:11:14 83° SSE 18:14:23 10° ENE
STARLINK-1239 3.7 18:07:29 10° SW 18:11:24 53° SE 18:15:20 10° ENE
SJ-6B 3.5 18:07:48 10° SE 18:11:33 38° ENE 18:15:23 10° N
STARLINK-1206 2.8 18:08:35 10° SW 18:11:42 84° SSE 18:14:50 10° ENE
STARLINK-1126 3.6 18:07:46 10° WNW 18:11:49 69° NNE 18:15:25 13° ESE
ISS -2.4 18:08:53 10° WNW 18:11:57 32° N 18:15:01 10° ENE
Cosmos 2369 Rocket 3.6 18:07:37 10° N 18:11:59 22° NE 18:16:01 11° E
STARLINK-1247 2.8 18:09:02 10° WSW 18:12:09 84° SE 18:15:17 10° ENE
STARLINK-1227 2.8 18:09:27 10° WSW 18:12:34 85° SSE 18:15:44 10° ENE
CZ-2C R/B 3.1 18:07:41 10° SSE 18:12:36 53° ENE 18:17:20 10° N
STARLINK-1218 2.8 18:09:56 10° WSW 18:13:03 86° SE 18:16:10 10° ENE
Cosmos 304 Rocket 3.7 18:08:16 10° NNW 18:13:05 74° ENE 18:17:50 10° SSE
Cosmos 1758 4.5 18:09:51 10° SE 18:13:09 24° E 18:16:27 10° NE
STARLINK-1226 2.8 18:10:24 10° WSW 18:13:31 87° SE 18:16:39 10° ENE
STARLINK-1254 2.8 18:10:48 10° WSW 18:13:55 87° SSE 18:17:05 10° ENE
STARLINK-1215 2.8 18:11:17 10° WSW 18:14:24 88° SSE 18:17:32 10° ENE
STARLINK-1231 2.8 18:11:44 10° WSW 18:14:51 89° SSE 18:17:59 10° ENE
Cosmos 1048 Rocket 4.3 18:10:10 10° SSW 18:15:17 72° WNW 18:20:30 10° NNE
STARLINK-1232 2.8 18:12:38 10° WSW 18:15:45 90° S 18:18:53 10° ENE
STARLINK-1240 3.6 18:12:03 10° SW 18:16:00 57° SE 18:19:56 10° ENE
STARLINK-1217 2.8 18:13:06 10° WSW 18:16:12 89° NW 18:19:20 10° ENE
Meteor 2-8 Rocket 4.4 18:10:18 10° S 18:16:22 65° E 18:22:26 10° NNE
STARLINK-1082 3.6 18:12:19 10° WNW 18:16:22 73° NNE 18:19:48 14° ESE
STARLINK-1208 2.8 18:13:30 10° WSW 18:16:38 89° NNW 18:19:48 10° ENE
STARLINK-1229 2.8 18:13:59 10° WSW 18:17:06 88° NNW 18:20:14 10° ENE
Meteor 1-22 Rocket 4.0 18:11:56 10° S 18:17:11 66° E 18:22:26 10° NNE
STARLINK-1271 2.8 18:14:27 10° WSW 18:17:33 87° NW 18:20:42 10° ENE
STARLINK-1270 2.8 18:14:54 10° WSW 18:18:01 87° NNW 18:21:09 10° ENE
Resurs 01 Rocket 3.1 18:15:31 12° ESE 18:18:04 19° ENE 18:21:11 10° NNE
STARLINK-1154 2.8 18:15:20 10° WSW 18:18:27 86° NNW 18:21:35 10° ENE
STARLINK-1197 2.9 18:16:14 10° WSW 18:19:21 85° NW 18:22:29 10° ENE
STARLINK-1189 2.9 18:16:42 10° WSW 18:19:48 84° NW 18:22:57 10° ENE
STARLINK-1216 3.6 18:16:38 10° SW 18:20:36 62° SE 18:24:34 10° ENE
STARLINK-1187 3.0 18:17:33 10° WSW 18:20:40 75° NNW 18:23:49 10° ENE
STARLINK-1188 2.9 18:17:36 10° WSW 18:20:42 83° NNW 18:23:51 10° ENE
STARLINK-1100 3.6 18:16:53 10° WNW 18:20:56 78° NNE 18:24:11 15° ESE
STARLINK-1198 2.9 18:17:51 10° WSW 18:20:57 82° NNW 18:24:05 10° ENE
STARLINK-1235 3.2 18:18:15 10° WSW 18:21:22 67° NNW 18:24:31 10° NE
Cosmos 494 Rocket 3.9 18:16:27 10° SSW 18:21:35 79° ESE 18:26:48 10° NNE
Cosmos 1733 3.0 18:18:40 10° S 18:22:25 77° E 18:26:13 10° NNE
Abrixas rocket 4.0 18:21:06 10° S 18:22:34 13° SE 18:22:34 13° SE
STARLINK-1199 2.9 18:19:32 10° WSW 18:22:40 80° NNW 18:25:50 10° ENE
USA 81 4.1 18:17:41 10° N 18:22:59 86° W 18:28:16 10° S
STARLINK-1191 2.9 18:20:00 10° WSW 18:23:07 80° NNW 18:26:16 10° ENE
CZ-4C R/B 4.4 18:19:03 10° WNW 18:23:28 23° NNW 18:28:31 10° NNE
STARLINK-1210 2.9 18:20:26 10° WSW 18:23:34 79° NNW 18:26:43 10° ENE
STARLINK-1221 3.0 18:20:54 10° WSW 18:24:02 78° NNW 18:27:12 10° ENE
STARLINK-1219 3.0 18:21:21 10° WSW 18:24:29 78° NNW 18:27:38 10° ENE
FREGAT/IRIS 2.2 18:21:54 10° SSE 18:24:35 67° ENE 18:27:18 10° N
STARLINK-1222 3.0 18:21:47 10° WSW 18:24:55 77° NNW 18:28:04 10° ENE
STARLINK-67 3.7 18:22:29 10° W 18:24:56 39° NNW 18:27:25 10° NE
STARLINK-1237 3.5 18:21:15 10° SW 18:25:14 67° SE 18:29:15 10° ENE
STARLINK-1211 3.0 18:22:15 10° WSW 18:25:22 77° NNW 18:28:32 10° ENE
SPOT 3 Rocket 4.0 18:20:31 10° SE 18:25:24 42° ENE 18:30:18 10° N
STARLINK-1083 3.5 18:21:29 10° WNW 18:25:32 82° NNE 18:28:36 17° ESE
STARLINK-1214 3.0 18:22:42 10° WSW 18:25:49 76° NNW 18:28:59 10° ENE
Cosmos 1709 Rocket 4.0 18:19:45 10° N 18:25:57 63° ENE 18:32:01 10° SSE
STARLINK-1245 3.0 18:23:12 10° WSW 18:26:19 75° NNW 18:29:26 10° ENE
STARLINK-1238 3.0 18:23:37 10° WSW 18:26:44 75° NNW 18:29:53 10° ENE
Cosmos 1331 Rocket 4.0 18:22:15 10° NNW 18:27:27 85° WSW 18:32:35 10° SSE
STARLINK-1205 3.0 18:24:34 10° WSW 18:27:40 73° NNW 18:30:48 10° ENE
STARLINK-1204 3.0 18:24:59 10° WSW 18:28:06 73° NNW 18:31:13 10° ENE
Cosmos 1674 4.0 18:24:52 10° NNW 18:28:27 43° W 18:31:59 10° SSW
Cosmos 2219 Rocket 4.4 18:24:20 10° WSW 18:29:08 28° NW 18:33:56 10° N
STARLINK-1202 3.5 18:25:50 10° SW 18:29:50 72° SSE 18:33:52 10° ENE
STARLINK-1125 3.5 18:26:05 10° WNW 18:30:09 87° NNE 18:33:02 19° ESE
SL-14 R/B 3.3 18:26:19 10° N 18:30:22 68° E 18:34:22 10° SSE
Cosmos 1726 4.2 18:32:03 12° ENE 18:32:03 12° ENE 18:32:55 10° NE
MOS 1 Rocket 4.4 18:29:48 10° NE 18:34:17 28° E 18:38:54 10° SSE
STARLINK-1109 3.5 18:30:23 10° WNW 18:34:27 88° SSW 18:37:10 20° ESE
STARLINK-1246 3.5 18:30:47 10° SW 18:34:49 78° SSE 18:38:50 10° ENE
STARLINK-1097 4.5 18:32:07 10° NW 18:36:04 41° NNE 18:38:50 17° E
MONITOR-E 3.7 18:34:05 10° S 18:36:43 83° W 18:39:22 10° NNW
Cosmos 1943 Rocket 2.8 18:32:50 10° NNW 18:37:58 37° NE 18:41:18 19° ESE
Cosmos 1766 4.4 18:34:19 10° SSW 18:38:11 49° WNW 18:42:05 10° N
STARLINK-1091 3.5 18:35:03 10° WNW 18:39:07 83° SSW 18:41:39 22° SE
STARLINK-1099 4.4 18:37:06 10° NW 18:41:05 43° NNE 18:43:38 20° E
Ariane Rocket 3.5 18:36:15 10° S 18:41:16 64° WSW 18:46:20 10° NNW
STARLINK-1224 3.5 18:39:45 10° WSW 18:43:47 88° SSE 18:47:23 13° ENE
BREEZE-M DEB (TANK) 4.4 18:34:04 10° WNW 18:44:21 39° SW 18:47:18 12° SSE
Cosmos 1455 Rocket 3.5 18:40:48 10° SSW 18:45:06 65° W 18:49:28 10° N
STARLINK-1104 4.3 18:42:06 10° NW 18:46:06 44° NNE 18:48:25 22° E
STARLINK-1225 3.5 18:44:27 10° WSW 18:48:29 87° NNW 18:51:55 14° ENE
TSX-5 4.3 18:43:22 10° NNW 18:48:53 67° ENE 18:51:27 24° SE
STARLINK-1203 3.5 18:46:29 10° WSW 18:50:25 79° NNW 18:53:42 15° ENE
STARLINK-1144 4.3 18:47:04 10° NW 18:51:04 46° NNE 18:53:11 24° E
SL-16 R/B 2.1 18:46:00 10° SSW 18:51:40 80° ESE 18:57:21 10° NNE
STARLINK-1072 3.7 18:48:16 10° WNW 18:52:14 67° SW 18:54:14 28° SE
STARLINK-1230 3.6 18:49:05 10° WSW 18:53:07 82° NNW 18:56:22 15° ENE
Cosmos 1626 Rocket 3.4 18:48:54 10° N 18:53:20 80° E 18:57:13 13° SSE
USA 186 2.9 18:50:28 10° S 18:53:48 48° W 18:57:07 10° NNW
Cosmos 1953 2.8 18:53:53 29° SE 18:55:00 35° E 18:58:40 10° NNE
STARLINK-1103 4.2 18:52:02 10° NW 18:56:04 48° NNE 18:57:58 27° E
Cosmos 1626 2.6 18:52:32 10° NNW 18:56:13 61° W 18:59:51 10° S
STARLINK-1234 4.1 18:53:42 10° W 18:56:31 37° NNW 18:58:24 17° NE
STARLINK-1096 3.8 18:52:44 10° WNW 18:56:42 62° SW 18:58:31 29° SE
Cosmos 2084 Rocket 4.2 18:52:46 10° NNW 18:57:01 41° NE 18:58:47 28° E
STARLINK-1243 3.6 18:53:47 10° WSW 18:57:49 77° NNW 19:00:53 17° ENE
Aureole 3 3.7 18:57:25 19° SSE 19:00:08 52° E 19:04:58 10° NNE
Cosmos 1602 Rocket 3.5 18:56:25 10° N 19:00:54 75° E 19:03:54 20° SSE
STARLINK-1101 4.1 18:57:02 10° NW 19:01:05 51° NNE 19:02:46 30° E
STARLINK-1079 3.9 18:57:13 10° WNW 19:01:09 58° SW 19:02:49 31° SSE
STARLINK-1236 3.7 18:58:27 10° WSW 19:02:29 72° NNW 19:05:22 18° NE
STARLINK-1116 4.0 19:01:42 10° WNW 19:05:37 54° SW 19:07:08 33° SSE
H-2A R/B 3.0 19:00:31 10° S 19:05:39 48° W 19:10:42 10° NNW
ATLAS 2AS CENTAUR R/B 4.0 18:59:02 10° NNW 19:05:54 32° NNE 19:10:16 18° ENE
STARLINK-1102 4.0 19:02:00 10° NW 19:06:04 53° NNE 19:07:32 34° E
DMSP B5D2-2 4.0 19:00:57 10° NNE 19:06:07 60° E 19:11:15 10° S
Aureole 2 Rocket 3.1 19:07:19 10° N 19:10:31 36° ENE 19:10:31 36° ENE
Terra 4.0 19:10:44 11° NE 19:10:44 11° NE 19:12:10 10° NE
STARLINK-1111 3.9 19:06:58 10° NW 19:11:03 56° NNE 19:12:19 38° E
STARLINK-1269 3.9 19:07:54 10° WSW 19:11:55 64° NNW 19:14:25 22° NE
Cosmos 1603 4.2 19:12:01 30° SE 19:13:29 35° ESE 19:18:33 10° NE
Meteor 1-16 Rocket 4.5 19:12:23 32° SE 19:13:59 41° E 19:19:03 10° NNE
USA 234 3.2 19:07:35 10° NE 19:14:11 85° SE 19:20:44 10° SW
STARLINK-1094 4.2 19:10:43 10° WNW 19:14:34 46° SW 19:15:46 34° S
CZ-2C R/B 3.9 19:10:54 10° NNE 19:15:42 80° WNW 19:20:23 10° SSW
STARLINK-1073 3.9 19:11:57 10° WNW 19:16:04 59° NNE 19:17:06 44° ENE
Cosmos 2297 4.4 19:10:39 10° NW 19:16:10 53° WSW 19:20:56 14° S
STARLINK-1200 4.0 19:12:37 10° WSW 19:16:37 61° NNW 19:18:56 24° NE
Cosmos 1703 4.4 19:14:56 10° N 19:17:47 28° NE 19:17:47 28° NE
STARLINK-1117 4.3 19:15:15 10° WNW 19:19:04 43° SW 19:20:06 35° S
Cosmos 1825 Rocket 3.8 19:16:00 10° N 19:20:18 47° ENE 19:20:41 45° E
STARLINK-1121 3.8 19:16:56 10° WNW 19:21:03 63° NNE 19:21:53 49° ENE
STARLINK-1192 4.1 19:17:17 10° WSW 19:21:17 58° NNW 19:23:24 25° NE
MetOp-B 4.4 19:19:53 37° ESE 19:21:29 49° ENE 19:26:38 10° N
Cosmos 2237 Rocket 4.3 19:17:39 10° WSW 19:22:25 28° NW 19:27:14 10° N
STARLINK-1078 4.4 19:19:46 10° WNW 19:23:32 40° SW 19:24:26 34° S
STARLINK-1106 3.7 19:21:54 10° WNW 19:26:02 66° NNE 19:26:39 56° ENE
STARLINK-1244 4.2 19:22:06 10° WSW 19:26:05 55° NNW 19:28:01 27° NE
STARLINK-1201 4.5 19:23:31 10° W 19:26:33 34° NNW 19:27:31 28° NNE
CZ-2C R/B 2.4 19:22:34 10° NNE 19:27:47 77° ESE 19:32:38 12° S
Cosmos 1992 Rocket 3.9 19:23:52 10° NNW 19:29:06 71° ENE 19:30:33 47° SE
Cosmos 2184 Rocket 3.9 19:22:46 10° N 19:29:09 73° E 19:32:13 32° SSE
Cosmos 1758 Rocket 3.4 19:25:13 10° N 19:29:35 69° ENE 19:30:09 61° SE
STARLINK-1138 4.3 19:26:50 10° W 19:30:48 52° NNW 19:32:32 29° NE
STARLINK-1112 3.6 19:26:53 10° WNW 19:31:02 71° NNE 19:31:28 64° ENE
STARLINK-1143 4.3 19:31:39 10° W 19:35:36 50° NNW 19:37:08 32° NE
Cosmos 2251 Rocket 3.4 19:30:32 10° SSW 19:35:51 72° ESE 19:41:14 10° NNE
Cosmos 1953 Rocket 4.0 19:31:36 10° N 19:35:31 45° ENE 19:35:31 45° ENE
STARLINK-1128 3.5 19:31:53 10° WNW 19:36:02 75° NNE 19:36:15 72° ENE
SL-8 R/B 3.7 19:32:18 10° WNW 19:37:06 74° N 19:38:02 55° ENE
Cosmos 1656 Rocket 4.2 19:35:04 10° NNW 19:40:28 42° NE 19:41:14 40° ENE
STARLINK-1113 3.5 19:36:51 10° WNW 19:41:01 80° NNE 19:41:02 80° NNE
Cosmos 1606 Rocket 3.8 19:43:16 52° NE 19:43:16 52° NE 19:46:55 10° NNE
STARLINK-1119 3.6 19:41:49 10° WNW 19:45:48 80° NNW 19:45:48 80° NNW
ERS-1 Rocket 3.7 19:48:48 37° NE 19:48:48 37° NE 19:53:02 10° N
ISS -2.5 19:45:48 10° WNW 19:48:11 41° NW 19:48:11 41° NW
Cosmos 2154 Rocket 4.0 19:43:41 10° N 19:50:03 69° E 19:51:32 52° SE
USA 245 3.9 19:50:07 66° E 19:50:30 68° ENE 19:56:11 10° N
STARLINK-1114 3.7 19:46:49 10° WNW 19:50:36 73° WNW 19:50:36 73° WNW
BREEZE-M DEB (TANK) 3.8 19:48:39 10° WNW 19:53:10 58° NW 19:53:10 58° NW
Resurs 01 Rocket 2.3 19:53:04 40° SW 19:54:12 51° W 19:58:31 10° NNW
BREEZE M DEB (TANK) 4.0 19:45:47 10° SW 19:53:49 48° S 19:53:49 48° S
SPOT 5 4.0 19:56:05 27° NE 19:56:05 27° NE 19:58:43 10° N
STARLINK-1130 (DARKSAT) 3.9 19:51:47 10° WNW 19:55:22 65° WNW 19:55:22 65° WNW
Cosmos 2369 Rocket 2.2 19:50:58 10° NNW 19:56:41 78° WSW 19:57:50 57° S
Cosmos 2263 4.0 19:54:46 10° NNW 20:00:25 84° ENE 20:00:59 72° SE
Cosmos 967 Rocket 4.4 19:54:23 10° SSW 20:00:46 69° ESE 20:07:14 10° NE
STARLINK-1084 4.1 19:56:46 10° WNW 20:00:09 57° WNW 20:00:09 57° WNW
STARLINK-1098 4.4 20:01:44 10° WNW 20:04:55 50° WNW 20:04:55 50° WNW
Cosmos 1726 3.3 20:06:29 42° NW 20:06:29 42° NW 20:09:31 10° N
Landsat 7 3.9 20:06:34 67° NNE 20:06:34 67° NNE 20:10:48 10° N
Nadezhda 1 Rocket 3.9 20:06:17 43° S 20:08:35 89° WSW 20:15:02 10° N
Cosmos 2228 3.7 20:11:02 50° NNW 20:11:02 50° NNW 20:14:21 10° N
Cosmos 1943 3.1 20:19:28 80° NNE 20:19:28 80° NNE 20:24:50 10° NNE
Cosmos 1943 Rocket 3.2 20:16:38 10° NW 20:21:43 38° WSW 20:22:52 34° SW
NOSS 3-4 (A) 3.9 20:18:09 10° NW 20:25:00 60° NE 20:25:57 56° ENE
NOSS 3-4 (C) 4.0 20:18:15 10° NW 20:25:05 60° NE 20:26:03 55° ENE
SPOT 1/Viking Rocket 3.8 20:32:06 67° NW 20:32:06 67° NW 20:36:47 10° NNW
Spot 2 Rocket 4.2 20:33:06 47° WSW 20:33:14 47° W 20:38:11 10° NNW
NOSS 3-3 (A) 4.0 20:27:57 10° SW 20:33:50 73° NW 20:40:32 10° NE
NOSS 3-3 (C) 4.0 20:28:03 10° SW 20:33:56 74° NW 20:40:38 10° NE
Terra 3.2 20:49:36 35° N 20:49:36 35° N 20:52:25 10° N
Cosmos 2341 Rocket 4.1 20:47:45 10° NNW 20:53:51 71° WNW 20:53:51 71° WNW
USA 234 4.2 20:50:45 10° NE 20:56:53 45° NNW 21:03:01 10° W
ATLAS 2AS CENTAUR R/B 2.7 20:50:13 10° NW 20:57:41 86° NW 20:57:41 86° NW
Aureole 1 Rocket 4.5 21:07:14 62° WSW 21:08:21 71° WNW 21:14:59 10° NNE
COSMOS 2455 3.6 21:06:38 10° NNW 21:11:09 49° N 21:11:09 49° N
CZ-4C R/B 4.2 21:59:21 10° NNW 22:05:18 31° NNE 22:06:33 29° NE
Mayak 2.0 22:06:42 10° N 22:06:55 11° N 22:06:55 11° N
Cosmos 1980 Rocket 4.2 22:48:35 10° NNW 22:50:54 24° N 22:50:54 24° N
Cosmos 2082 Rocket 4.4 23:15:19 20° NE 23:15:19 20° NE 23:17:00 10° NNE
SL-16 R/B 4.2 23:21:37 27° NE 23:21:37 27° NE 23:26:07 10° N
ATLAS 5 CENTAUR R/B 4.5 23:39:11 16° N 23:39:11 16° N 23:40:54 10° NNE
